• In Hungary
  • List of Countries
  • For 7 days
  • Water Temperature
  • Satellite Maps
  • Weather Map
  • News
  • Weather Widgets
  • user-avatar
    Login

    Hourly Weather Torrington

    Today, 24 January, Wednesday

    Time Temperature Precipitation Wind Pressure Humidity
    00:00 +1°C° 0 mm 3 mps 733 mmHg 83%
    01:00 -1°C° 0 mm 4 mps 733 mmHg 83%
    02:00 -1°C° 0 mm 4 mps 734 mmHg 83%
    03:00 -1°C° 0 mm 4 mps 734 mmHg 83%
    04:00 -1°C° 0 mm 4 mps 734 mmHg 84%
    05:00 -1°C° 0 mm 4 mps 735 mmHg 82%
    06:00 -2°C° 0 mm 4 mps 735 mmHg 80%
    07:00 -2°C° 0 mm 4 mps 736 mmHg 79%
    08:00 -2°C° 0 mm 4 mps 737 mmHg 75%
    09:00 -2°C° 0 mm 5 mps 737 mmHg 71%
    10:00 -2°C° 0 mm 5 mps 738 mmHg 67%
    11:00 -2°C° 0 mm 5 mps 738 mmHg 65%
    12:00 -2°C° 0 mm 5 mps 738 mmHg 63%
    13:00 -2°C° 0 mm 5 mps 739 mmHg 61%
    14:00 -4°C° 0 mm 5 mps 739 mmHg 62%
    15:00 -4°C° 0 mm 5 mps 739 mmHg 62%
    16:00 -4°C° 0 mm 4 mps 740 mmHg 63%
    17:00 -5°C° 0 mm 4 mps 740 mmHg 65%
    18:00 -7°C° 0 mm 4 mps 741 mmHg 68%
    19:00 -7°C° 0 mm 3 mps 741 mmHg 71%
    20:00 -7°C° 0 mm 3 mps 742 mmHg 70%
    21:00 -7°C° 0 mm 3 mps 742 mmHg 70%
    22:00 -8°C° 0 mm 3 mps 742 mmHg 70%
    23:00 -8°C° 0 mm 3 mps 743 mmHg 68%

    Tomorrow, 25 January, Thursday

    Time Temperature Precipitation Wind Pressure Humidity
    00:00 -8°C° 0 mm 3 mps 743 mmHg 67%
    01:00 -8°C° 0 mm 3 mps 743 mmHg 66%
    02:00 -9°C° 0 mm 4 mps 743 mmHg 63%
    03:00 -9°C° 0 mm 4 mps 743 mmHg 60%
    04:00 -9°C° 0 mm 4 mps 744 mmHg 57%
    05:00 -9°C° 0 mm 4 mps 744 mmHg 54%
    06:00 -10°C° 0 mm 4 mps 745 mmHg 52%
    07:00 -10°C° 0 mm 4 mps 746 mmHg 49%
    08:00 -10°C° 0 mm 5 mps 746 mmHg 46%
    09:00 -10°C° 0 mm 5 mps 747 mmHg 43%
    10:00 -10°C° 0 mm 5 mps 748 mmHg 40%
    11:00 -8°C° 0 mm 5 mps 748 mmHg 37%
    12:00 -7°C° 0 mm 5 mps 748 mmHg 34%
    13:00 -7°C° 0 mm 5 mps 748 mmHg 31%
    14:00 -7°C° 0 mm 5 mps 748 mmHg 32%
    15:00 -7°C° 0 mm 5 mps 749 mmHg 32%
    16:00 -7°C° 0 mm 5 mps 749 mmHg 33%
    17:00 -8°C° 0 mm 4 mps 750 mmHg 36%
    18:00 -9°C° 0 mm 4 mps 751 mmHg 38%
    19:00 -9°C° 0 mm 4 mps 752 mmHg 41%
    20:00 -9°C° 0 mm 3 mps 752 mmHg 42%
    21:00 -9°C° 0 mm 3 mps 753 mmHg 43%
    22:00 -9°C° 0 mm 3 mps 753 mmHg 44%
    23:00 -9°C° 0 mm 2 mps 753 mmHg 46%

    Day after tomorrow, 26 January, Friday

    Time Temperature Precipitation Wind Pressure Humidity
    00:00 -9°C° 0 mm 2 mps 753 mmHg 47%
    01:00 -9°C° 0 mm 2 mps 753 mmHg 48%
    02:00 -8°C° 0 mm 1 mps 754 mmHg 49%
    03:00 -9°C° 0 mm 1 mps 754 mmHg 50%
    04:00 -9°C° 0 mm 1 mps 754 mmHg 51%
    05:00 -9°C° 0 mm 1 mps 754 mmHg 51%
    06:00 -9°C° 0 mm 1 mps 755 mmHg 51%
    07:00 -9°C° 0 mm 1 mps 755 mmHg 52%
    08:00 -7°C° 0 mm 1 mps 756 mmHg 45%
    09:00 -6°C° 0 mm 1 mps 756 mmHg 38%
    10:00 -3°C° 0 mm 1 mps 756 mmHg 31%
    11:00 -2°C° 0 mm 1 mps 756 mmHg 31%
    12:00 0°C° 0 mm 1 mps 755 mmHg 31%
    13:00 +1°C° 0 mm 1 mps 755 mmHg 31%
    14:00 +1°C° 0 mm 1 mps 755 mmHg 35%
    15:00 +1°C° 0 mm 1 mps 754 mmHg 38%
    16:00 +1°C° 0 mm 1 mps 754 mmHg 42%
    17:00 0°C° 0 mm 1 mps 754 mmHg 47%
    18:00 -3°C° 0 mm 2 mps 754 mmHg 52%
    19:00 -4°C° 0 mm 2 mps 754 mmHg 57%
    20:00 -4°C° 0 mm 2 mps 754 mmHg 62%
    21:00 -4°C° 0 mm 2 mps 754 mmHg 67%
    22:00 -4°C° 0 mm 2 mps 754 mmHg 72%
    23:00 -4°C° 0 mm 2 mps 753 mmHg 79%

    27 January, Saturday

    Time Temperature Precipitation Wind Pressure Humidity
    00:00 -4°C° 0 mm 2 mps 753 mmHg 85%
    01:00 -3°C° 0 mm 2 mps 752 mmHg 91%
    02:00 -3°C° 0 mm 2 mps 752 mmHg 93%
    03:00 -2°C° 0 mm 3 mps 751 mmHg 94%
    04:00 -2°C° 0 mm 3 mps 751 mmHg 95%
    05:00 -2°C° 0 mm 3 mps 750 mmHg 94%
    06:00 -2°C° 0 mm 3 mps 750 mmHg 93%
    07:00 -2°C° 0 mm 3 mps 750 mmHg 92%
    08:00 -1°C° 0 mm 4 mps 750 mmHg 84%
    09:00 0°C° 0 mm 4 mps 749 mmHg 76%
    10:00 +2°C° 0 mm 5 mps 749 mmHg 68%
    11:00 +2°C° 0 mm 5 mps 749 mmHg 65%
    12:00 +3°C° 0 mm 5 mps 748 mmHg 62%
    13:00 +5°C° 0 mm 5 mps 748 mmHg 60%
    14:00 +3°C° 0.1 mm 5 mps 748 mmHg 64%
    15:00 +4°C° 0.1 mm 4 mps 747 mmHg 69%
    16:00 +3°C° 0.1 mm 4 mps 747 mmHg 74%
    17:00 +3°C° 0.2 mm 3 mps 748 mmHg 79%
    18:00 +2°C° 0.2 mm 3 mps 748 mmHg 84%
    19:00 +2°C° 0.2 mm 3 mps 748 mmHg 89%
    20:00 +2°C° 0.2 mm 3 mps 748 mmHg 90%
    21:00 +3°C° 0.2 mm 2 mps 748 mmHg 92%
    22:00 +3°C° 0.2 mm 2 mps 748 mmHg 94%
    23:00 +3°C° 0.2 mm 2 mps 747 mmHg 95%

    28 January, Sunday

    Time Temperature Precipitation Wind Pressure Humidity
    00:00 +2°C° 0.2 mm 2 mps 747 mmHg 96%
    01:00 +2°C° 0.2 mm 2 mps 746 mmHg 97%
    02:00 +3°C° 0.1 mm 2 mps 746 mmHg 97%
    03:00 +3°C° 0.1 mm 2 mps 746 mmHg 98%
    04:00 +3°C° 0.1 mm 2 mps 745 mmHg 98%
    05:00 +3°C° 0.8 mm 2 mps 745 mmHg 98%
    06:00 +3°C° 0.8 mm 2 mps 745 mmHg 98%
    07:00 +4°C° 0.8 mm 1 mps 745 mmHg 98%
    08:00 +4°C° 0.9 mm 2 mps 744 mmHg 98%
    09:00 +4°C° 0.9 mm 2 mps 744 mmHg 98%
    10:00 +5°C° 0.9 mm 2 mps 743 mmHg 98%
    11:00 +5°C° 1.1 mm 2 mps 742 mmHg 97%
    12:00 +6°C° 1.1 mm 2 mps 741 mmHg 97%
    13:00 +6°C° 1.1 mm 2 mps 740 mmHg 96%
    14:00 +6°C° 0.7 mm 2 mps 740 mmHg 96%
    15:00 +6°C° 0.7 mm 2 mps 740 mmHg 96%
    16:00 +6°C° 0.7 mm 2 mps 739 mmHg 96%
    17:00 +5°C° 0.1 mm 2 mps 739 mmHg 96%
    18:00 +5°C° 0.1 mm 2 mps 740 mmHg 96%
    19:00 +4°C° 0.1 mm 2 mps 740 mmHg 96%
    20:00 +4°C° 0 mm 2 mps 740 mmHg 96%
    21:00 +3°C° 0 mm 2 mps 740 mmHg 95%
    22:00 +3°C° 0 mm 2 mps 740 mmHg 95%
    23:00 +2°C° 0 mm 2 mps 739 mmHg 94%

    29 January, Monday

    Time Temperature Precipitation Wind Pressure Humidity
    00:00 +1°C° 0 mm 2 mps 739 mmHg 94%
    01:00 -1°C° 0 mm 2 mps 739 mmHg 93%
    02:00 -1°C° 0 mm 2 mps 739 mmHg 93%
    03:00 -2°C° 0 mm 2 mps 739 mmHg 94%
    04:00 0°C° 0 mm 1 mps 738 mmHg 94%
    05:00 0°C° 0 mm 1 mps 739 mmHg 94%
    06:00 -1°C° 0 mm 1 mps 739 mmHg 94%
    07:00 -1°C° 0 mm 1 mps 739 mmHg 94%
    08:00 +1°C° 0 mm 1 mps 739 mmHg 88%
    09:00 +1°C° 0 mm 2 mps 739 mmHg 82%
    10:00 +1°C° 0 mm 3 mps 739 mmHg 76%
    11:00 +2°C° 0.1 mm 3 mps 739 mmHg 75%
    12:00 +2°C° 0.1 mm 3 mps 739 mmHg 73%
    13:00 +2°C° 0.1 mm 3 mps 738 mmHg 72%
    14:00 +2°C° 0.1 mm 3 mps 738 mmHg 73%
    15:00 0°C° 0.1 mm 4 mps 739 mmHg 74%
    16:00 0°C° 0.1 mm 4 mps 739 mmHg 75%
    17:00 -2°C° 0 mm 4 mps 740 mmHg 75%
    18:00 -3°C° 0 mm 4 mps 740 mmHg 75%
    19:00 -5°C° 0 mm 5 mps 741 mmHg 75%
    20:00 -6°C° 0 mm 5 mps 742 mmHg 73%
    21:00 -6°C° 0 mm 5 mps 742 mmHg 72%
    22:00 -7°C° 0 mm 5 mps 743 mmHg 70%
    23:00 -8°C° 0 mm 5 mps 743 mmHg 69%
    Show more